ELECTRON KICK STAGE R/B

Satellite information

Favourite Embed

Satellite Type and Status

ROCKET BODYIN ORBIT

Key statistics

Satellite ELECTRON KICK STAGE R/B at a glance.

Uptime

684

Days in orbit

Revolutions

≈ 14.8

Per day

Orbit

LEO

Low Earth Orbit

Inclination

53.0

Latest

Satellite identification and parameters

Extended collection of information and parameters for ELECTRON KICK STAGE R/B.

Object identification

Identified? True

Debris? False

Object name: ELECTRON KICK STAGE R/B

International designator: 2023-126B

Object number (NORAD): 57694

Object ID (CCSDS): 57694

Country: UNITED STATES OF AMERICA (US)

Current information (Y/N): Y

RCS size: MEDIUM

Orbital parameters

Period: 97.14 minutes

Inclination: 53.0082 deg

SMA: 6999.911 km

Apoapsis: 628.977 km

Periapsis: 614.574 km

RAAN: 232.6873 deg

Eccentricy: 0.0010288

Argument of periapsis: 97.343 deg

Mean anomaly: 262.8717 deg

Mean motion: 14.8239515 rev/day

Mean motion (dot): 0.00001179 rev/day2

B* drag term: 0.00017392 1/REarth

Two-line elements (TLE)

Creation date: July 6, 2025, 6:05 p.m.

Reference frame: TEME

Reference center: EARTH

Epoch: July 6, 2025, 1:05 p.m. UTC

TLE line 0: 0 ELECTRON KICK STAGE R/B

TLE line 1: 1 57694U 23126B 25187.54550223 .00001179 00000-0 17392-3 0 9997

TLE line 2: 2 57694 53.0082 232.6873 0010288 97.3430 262.8717 14.82395150100986

Live tracking on map

Real-time ground track for satellite ELECTRON KICK STAGE R/B.

In-orbit conjunctions

A list of the most updated potential collisions computed for object ELECTRON KICK STAGE R/B.

Target Orbit TCA Probability of collision Miss distance Type
CZ-4 DEB SSO 2024-09-27 08:18:57 0.0003041699 584.0 (m) DEBRIS
CZ-6A DEB SSO 2024-07-09 06:28:03 0.0001147316 246.0 (m) DEBRIS

Associated space launch

Payload consists of a single SAR Earth-imaging Acadia satellite, a new generation satellite designed, manufactured, and operated by Capella Space. First mission to fly with a reused engine.

ELECTRON KICK STAGE R/B was lifted into orbit during the mission ‘Electron | We Love the Nightlife (Capella Acadia 1)’, on board a Electron space rocket.

The launch took place on Aug. 23, 2023, 11:45 p.m. from Rocket Lab Launch Complex 1B.

For more information about the launch, click the button.

Launch to space Electron | We Love the Nightlife (Capella Acadia 1)
Electron | We Love the Nightlife (Capella Acadia 1)

Agency: Capella Space

Status: Launch Successful

Launch date: Aug. 23, 2023, 11:45 p.m. UTC

Rocket: Electron

Launch pad: Rocket Lab Launch Complex 1B

Location: Rocket Lab Launch Complex 1, Mahia Peninsula, New Zealand

...

Latest news about this satellite

News about space launch
RocketLab Flys Recovered Electron Engine For First Time

Rocket Lab has achieved a significant milestone in the effort to make Electron reusable, for the first time the company has flown an engine that had previously flown before and was recovered from the ocean.

News about space launch
The re-flight of a Rutherford engine demonstrates rocket reuse is here to stay

"The data is in, perfect performance from the reused engine."

News about space launch
Rocket Lab launches 40th mission, first re-flown Rutherford engine

Rocket Lab’s ‘We Love the Nightlife’ mission lifted off at 11:45 a.m. NZST (23:45 UTC), bringing the Acadia satellite to orbit and...


Newsletter sign-up

Weekly statistics, charts and insights to help you stay on top of the space industry.